Home > Weather > Stoke-on-Trent > Past weeks

Flag for United Kingdom Past Weather in Stoke-on-Trent, England, United Kingdom — Yesterday and Last 2 Weeks

Now
64 °F

Light rain. Partly sunny.


Feels Like: 64 °F
Forecast: 50 / 67 °F
Wind: 2 mph from North

Location: Manchester Airport

Current Time: Aug 25, 2016 at 12:40:14 PM

Latest Report: Aug 25, 2016 at 12:20 PM


Visibility: 4 mi

Pressure: 30.01 "Hg

Humidity: 88%

Dew Point: 61 °F

Location of Stoke-on-TrentLocation

Past Weather in Stoke-on-Trent — Graph

°F

Stoke-on-Trent Temperature Yesterday

Maximum temperature yesterday: 72 °F (at 2:50 PM)
Minimum temperature yesterday: 57 °F (at 2:20 AM)
Average temperature yesterday: 64 °F

High & Low Weather Summary for the Past Weeks

 TemperatureHumidityPressure
High79 °F (Aug 23, 3:20 PM)100% (Aug 10, 8:20 PM)30.33 "Hg (Aug 10, 8:20 PM)
Low46 °F (Aug 15, 5:50 AM)47% (Aug 18, 5:50 PM)29.45 "Hg (Aug 20, 7:20 AM)
Average62 °F79%30.03 "Hg
* Reported Aug 10 10:20 AM — Aug 25 10:50 AM, Stoke-on-Trent, Weather by CustomWeather, © 2016

Note: Actual official high and low records may vary slightly from our data, if they occured in-between our weather recording intervals... More about our weather records

Advertising

Stoke-on-Trent Weather History for the Previous 24 Hours

Scroll right to see more
 ConditionsComfort  
Time TempWeatherWind HumidityBarometerVisibility
10:50 AM
Thu, Aug 25
64 °FPartly sunny.No wind83%30.04 "HgN/A
10:20 AM64 °FPartly sunny.2 mph88%30.04 "HgN/A
9:50 AM63 °FPartly sunny.2 mph88%30.04 "HgN/A
9:20 AM63 °FPartly sunny.3 mph94%30.04 "HgN/A
8:50 AM63 °FPartly sunny.3 mph88%30.04 "HgN/A
8:20 AM61 °FPartly sunny.3 mph94%30.04 "HgN/A
7:50 AM61 °FPartly sunny.2 mph94%30.04 "HgN/A
7:20 AM61 °FPartly sunny.3 mph94%30.04 "HgN/A
6:50 AM61 °FPassing clouds.6 mph94%30.04 "HgN/A
6:20 AM61 °FPassing clouds.7 mph94%30.04 "HgN/A
5:50 AM61 °FPassing clouds.7 mph88%30.04 "HgN/A
5:20 AM61 °FLight rain. Passing clouds.7 mph88%30.04 "HgN/A
4:50 AM61 °FLight rain. Mostly cloudy.7 mph88%30.04 "HgN/A
4:20 AM61 °FLight rain. Overcast.2 mph94%30.07 "HgN/A
3:50 AM61 °FLight rain. Mostly cloudy.3 mph88%30.07 "HgN/A
3:20 AM61 °FRain. Mostly cloudy.3 mph94%30.07 "Hg6 mi
2:50 AM61 °FLight rain. Passing clouds.3 mph94%30.07 "HgN/A
2:20 AM61 °FLight rain. Overcast.2 mph88%30.09 "HgN/A
1:50 AM61 °FPassing clouds.2 mph88%30.07 "HgN/A
1:20 AM63 °FOvercast.3 mph83%30.09 "HgN/A
12:50 AM61 °FMostly cloudy.3 mph88%30.09 "HgN/A
12:20 AM61 °FOvercast.2 mph88%30.09 "HgN/A
11:50 PM
Wed, Aug 24
61 °FOvercast.2 mph88%30.12 "HgN/A
11:20 PM63 °FOvercast.No wind77%30.12 "HgN/A
10:50 PM61 °FOvercast.3 mph88%30.12 "HgN/A
10:20 PM63 °FOvercast.2 mph77%30.09 "HgN/A
9:50 PM63 °FPassing clouds.5 mph77%30.09 "HgN/A
9:20 PM63 °FPassing clouds.6 mph77%30.09 "HgN/A
8:50 PM64 °FSunny.6 mph73%30.09 "Hg10 mi
8:20 PM64 °FPassing clouds.6 mph73%30.12 "HgN/A
7:50 PM66 °FPassing clouds.5 mph68%30.12 "HgN/A
7:20 PM66 °FPassing clouds.5 mph68%30.12 "HgN/A
6:50 PM66 °FPassing clouds.8 mph68%30.15 "HgN/A
6:20 PM66 °FPassing clouds.8 mph73%30.15 "HgN/A
5:50 PM68 °FSunny.9 mph69%30.12 "Hg10 mi
5:20 PM68 °FSunny.8 mph69%30.12 "Hg10 mi
4:50 PM68 °FPassing clouds.7 mph69%30.09 "HgN/A
4:20 PM68 °FPassing clouds.8 mph69%30.12 "HgN/A
3:50 PM70 °FPassing clouds.8 mph64%30.12 "HgN/A
3:20 PM70 °FPassing clouds.10 mph60%30.12 "HgN/A
2:50 PM72 °FPassing clouds.8 mph61%30.12 "HgN/A
2:20 PM70 °FPassing clouds.6 mph60%30.12 "HgN/A
1:50 PM70 °FPassing clouds.7 mph60%30.12 "HgN/A
1:20 PM70 °FPassing clouds.7 mph60%30.12 "HgN/A
12:50 PM70 °FPassing clouds.5 mph64%30.12 "HgN/A
12:20 PM68 °FPassing clouds.9 mph64%30.12 "HgN/A
Weather by CustomWeather, © 2016

See weather overviewHow to use our weather pages